This is the latest recevied weather packets stored in our database for station/object S54Z-11. If no packets are shown the sender has not sent any weather packets the latest 10 day(s).
| Time | Temp. | Humidity | Pressure | Rain* | Wind** | Luminosity | Snow |
|---|---|---|---|---|---|---|---|
| 1777558171 | 12.22° C | 34% | 1028.6 hPa | - | - | - | - |
| 1777557271 | 12.22° C | 32% | 1028.6 hPa | - | - | - | - |
| 1777556371 | 11.67° C | 35% | 1028.6 hPa | - | - | - | - |
| 1777555471 | 11.11° C | 31% | 1028.7 hPa | - | - | - | - |
| 1777554571 | 11.11° C | 31% | 1029 hPa | - | - | - | - |
| 1777552771 | 11.11° C | 33% | 1029.4 hPa | - | - | - | - |
| 1777548270 | 11.11° C | 37% | 1029.9 hPa | - | - | - | - |
| 1777547370 | 11.67° C | 37% | 1030 hPa | - | - | - | - |
| 1777546470 | 11.67° C | 40% | 1029.9 hPa | - | - | - | - |
| 1777545570 | 12.78° C | 38% | 1030.1 hPa | - | - | - | - |
| 1777544670 | 10.56° C | 37% | 1030.4 hPa | - | - | - | - |
| 1777543770 | 11.11° C | 37% | 1030.4 hPa | - | - | - | - |
| 1777542870 | 10.56° C | 38% | 1030.5 hPa | - | - | - | - |
| 1777541970 | 11.67° C | 37% | 1030.6 hPa | - | - | - | - |
| 1777541069 | 10.56° C | 37% | 1030.8 hPa | - | - | - | - |
| 1777540169 | 11.11° C | 37% | 1030.7 hPa | - | - | - | - |
| 1777539269 | 10° C | 38% | 1030.8 hPa | - | - | - | - |
| 1777538369 | 10.56° C | 38% | 1030.7 hPa | - | - | - | - |
| 1777537469 | 9.44° C | 38% | 1030.8 hPa | - | - | - | - |
| 1777535669 | 9.44° C | 40% | 1030.7 hPa | - | - | - | - |
| 1777534774 | 10.56° C | 37% | 1030.9 hPa | - | - | - | - |
| 1777533874 | 11.11° C | 38% | 1030.9 hPa | - | - | - | - |
| 1777532974 | 10.56° C | 36% | 1031 hPa | - | - | - | - |
| 1777532074 | 8.89° C | 38% | 1031 hPa | - | - | - | - |
| 1777531173 | 9.44° C | 40% | 1031 hPa | - | - | - | - |
* Rain since midnight (hover to see other rain measurements)
** Current wind speed in m/s (hover to see current wind gust speed)